Tillbaka till svenska Fidonet
English   Information   Debug  
FILM   0/18
FNEWS_PUBLISH   4926
FN_SYSOP   42201
FN_SYSOP_OLD1   71952
FTP_FIDO   0/2
FTSC_PUBLIC   0/13972
FUNNY   0/4886
GENEALOGY.EUR   0/71
GET_INFO   105
GOLDED   0/408
HAM   1335/16660
HOLYSMOKE   0/6791
HOT_SITES   0/1
HTMLEDIT   0/71
HUB203   466
HUB_100   264
HUB_400   39
HUMOR   0/29
IC   0/2851
INTERNET   0/424
INTERUSER   0/3
IP_CONNECT   719
JAMNNTPD   0/233
JAMTLAND   0/47
KATTY_KORNER   0/41
LAN   0/16
LINUX-USER   0/19
LINUXHELP   0/1155
LINUX   0/22300
LINUX_BBS   0/957
mail   18.68
mail_fore_ok   249
MENSA   0/341
MODERATOR   0/102
MONTE   0/992
MOSCOW_OKLAHOMA   0/1245
MUFFIN   0/783
MUSIC   0/321
N203_STAT   938
N203_SYSCHAT   313
NET203   321
NET204   69
NET_DEV   0/10
NORD.ADMIN   0/101
NORD.CHAT   0/2572
NORD.FIDONET   189
NORD.HARDWARE   0/28
NORD.KULTUR   0/114
NORD.PROG   0/32
NORD.SOFTWARE   0/88
NORD.TEKNIK   0/58
NORD   0/453
OCCULT_CHAT   0/93
OS2BBS   0/787
OS2DOSBBS   0/580
OS2HW   0/42
OS2INET   0/37
OS2LAN   0/134
OS2PROG   0/36
OS2REXX   0/113
OS2USER-L   207
OS2   0/4830
OSDEBATE   0/18996
PASCAL   0/490
PERL   0/457
PHP   0/45
POINTS   0/405
POLITICS   0/29554
POL_INC   0/14731
PSION   103
R20_ADMIN   1133
R20_AMATORRADIO   0/2
R20_BEST_OF_FIDONET   16
R20_CHAT   0/896
R20_DEPP   0/3
R20_DEV   400
R20_ECHO2   1831
R20_ECHOPRES   0/35
R20_ESTAT   0/719
R20_FIDONETPROG...
...RAM.MYPOINT
  0/2
R20_FIDONETPROGRAM   0/22
R20_FIDONET   0/248
R20_FILEFIND   0/24
R20_FILEFOUND   0/22
R20_HIFI   0/3
R20_INFO2   3723
R20_INTERNET   0/12940
R20_INTRESSE   0/60
R20_INTR_KOM   0/99
R20_KANDIDAT.CHAT   42
R20_KANDIDAT   28
R20_KOM_DEV   112
R20_KONTROLL   0/13360
R20_KORSET   0/18
R20_LOKALTRAFIK   0/24
R20_MODERATOR   0/1852
R20_NC   76
R20_NET200   245
R20_NETWORK.OTH...
...ERNETS
  0/13
R20_OPERATIVSYS...
...TEM.LINUX
  0/44
R20_PROGRAMVAROR   0/1
R20_REC2NEC   534
R20_SFOSM   0/341
R20_SF   0/108
R20_SPRAK.ENGLISH   0/1
R20_SQUISH   107
R20_TEST   2
R20_WORST_OF_FIDONET   20
RAR   0/9
RA_MULTI   106
RA_UTIL   0/162
REGCON.EUR   0/2068
REGCON   0/13
SCIENCE   0/1206
SF   0/239
SHAREWARE_SUPPORT   0/5146
SHAREWRE   0/14
SIMPSONS   0/169
STATS_OLD1   0/2539.065
STATS_OLD2   0/2530
STATS_OLD3   0/2395.095
STATS_OLD4   0/1692.25
SURVIVOR   0/495
SYSOPS_CORNER   0/3
SYSOP   0/84
TAGLINES   0/112
TEAMOS2   0/4530
TECH   0/2617
TEST.444   0/105
TRAPDOOR   0/19
TREK   0/755
TUB   0/290
UFO   0/40
UNIX   0/1316
USA_EURLINK   0/102
USR_MODEMS   0/1
VATICAN   0/2740
VIETNAM_VETS   0/14
VIRUS   0/378
VIRUS_INFO   0/201
VISUAL_BASIC   0/473
WHITEHOUSE   0/5187
WIN2000   0/101
WIN32   0/30
WIN95   0/4291
WIN95_OLD1   0/70272
WINDOWS   0/1517
WWB_SYSOP   0/419
WWB_TECH   0/810
ZCC-PUBLIC   0/1
ZEC   4

 
4DOS   0/134
ABORTION   0/7
ALASKA_CHAT   0/506
ALLFIX_FILE   0/1313
ALLFIX_FILE_OLD1   0/7997
ALT_DOS   0/152
AMATEUR_RADIO   0/1039
AMIGASALE   0/14
AMIGA   0/331
AMIGA_INT   0/1
AMIGA_PROG   0/20
AMIGA_SYSOP   0/26
ANIME   0/15
ARGUS   0/924
ASCII_ART   0/340
ASIAN_LINK   0/651
ASTRONOMY   0/417
AUDIO   0/92
AUTOMOBILE_RACING   0/105
BABYLON5   0/17862
BAG   135
BATPOWER   0/361
BBBS.ENGLISH   0/382
BBSLAW   0/109
BBS_ADS   0/5290
BBS_INTERNET   0/507
BIBLE   0/3563
BINKD   0/1119
BINKLEY   0/215
BLUEWAVE   0/2173
CABLE_MODEMS   0/25
CBM   0/46
CDRECORD   0/66
CDROM   0/20
CLASSIC_COMPUTER   0/378
COMICS   0/15
CONSPRCY   0/899
COOKING   41444
COOKING_OLD1   0/24719
COOKING_OLD2   0/40862
COOKING_OLD3   0/37489
COOKING_OLD4   0/35496
COOKING_OLD5   9370
C_ECHO   0/189
C_PLUSPLUS   0/31
DIRTY_DOZEN   0/201
DOORGAMES   0/2285
DOS_INTERNET   0/196
duplikat   6102
ECHOLIST   0/18295
EC_SUPPORT   0/318
ELECTRONICS   0/359
ELEKTRONIK.GER   1534
ENET.LINGUISTIC   0/13
ENET.POLITICS   0/4
ENET.SOFT   0/11701
ENET.SYSOP   34296
ENET.TALKS   0/32
ENGLISH_TUTOR   0/2000
EVOLUTION   0/1335
FDECHO   0/217
FDN_ANNOUNCE   0/7068
FIDONEWS   25062
FIDONEWS_OLD1   0/49742
FIDONEWS_OLD2   0/35949
FIDONEWS_OLD3   0/30874
FIDONEWS_OLD4   0/37224
FIDO_SYSOP   12922
FIDO_UTIL   0/180
FILEFIND   0/209
FILEGATE   0/212
Möte HAM, 16660 texter
 lista första sista föregående nästa
Text 2484, 746 rader
Skriven 2008-09-05 00:00:28 av Amsat List (1:323/120.0)
Ärende: [keps]  orb08248.amsa
=============================
[keps]  orb08248.amsa

Return-Path: <keps-bounces@amsat.org>
X-Rcpt: craig.healy@chowda.com
X-UIDL: 1220586424.13563

SB KEPS @ AMSAT  $ORB08248.O
Orbital Elements  08248.OSCAR

HR AMSAT ORBITAL ELEMENTS FOR OSCAR SATELLITES
FROM WA5QGD FORT WORTH,TX September 4, 2008
Send Subscribe/unsubscribe to KEPS at 
http://www.amsat.org/mailman/listinfo/keps
BID: ORB08248.O
TO ALL RADIO AMATEURS BT

Satellite: AO-07
Catalog number: 07530
Epoch time:      08247.58377066
Element set:     268
Inclination:      101.4617 deg
RA of node:       276.4448 deg
Eccentricity:    0.0012178
Arg of perigee:   108.7074 deg
Mean anomaly:     251.5331 deg
Mean motion:   12.53574007 rev/day
Decay rate:       -2.7e-07 rev/day^2
Epoch rev:           54680
Checksum:              300

Satellite: AO-10
Catalog number: 14129
Epoch time:      08247.38126761
Element set:     555
Inclination:      026.0283 deg
RA of node:       197.4263 deg
Eccentricity:    0.5966679
Arg of perigee:   153.9315 deg
Mean anomaly:     255.4605 deg
Mean motion:   02.05869484 rev/day
Decay rate:      -2.22e-06 rev/day^2
Epoch rev:           18971
Checksum:              332

Satellite: UO-11
Catalog number: 14781
Epoch time:      08247.56208991
Element set:     758
Inclination:      098.1483 deg
RA of node:       282.7451 deg
Eccentricity:    0.0009156
Arg of perigee:   174.8847 deg
Mean anomaly:     185.2405 deg
Mean motion:   14.79661995 rev/day
Decay rate:       1.13e-06 rev/day^2
Epoch rev:           31544
Checksum:              340

Satellite: RS-15
Catalog number: 23439
Epoch time:      08247.86068918
Element set:    0158
Inclination:      064.8189 deg
RA of node:       007.8251 deg
Eccentricity:    0.0146620
Arg of perigee:   107.7181 deg
Mean anomaly:     253.9807 deg
Mean motion:   11.27552922 rev/day
Decay rate:       -3.9e-07 rev/day^2
Epoch rev:           56383
Checksum:              330

Satellite: FO-29
Catalog number: 24278
Epoch time:      08247.80750035
Element set:     854
Inclination:      098.5793 deg
RA of node:       153.7864 deg
Eccentricity:    0.0351137
Arg of perigee:   012.1772 deg
Mean anomaly:     348.7587 deg
Mean motion:   13.52938974 rev/day
Decay rate:       -5.0e-07 rev/day^2
Epoch rev:           59502
Checksum:              346

Satellite: SO-33
Catalog number: 25509
Epoch time:      08246.28789264
Element set:     272
Inclination:      031.4323 deg
RA of node:       240.4001 deg
Eccentricity:    0.0354693
Arg of perigee:   341.2127 deg
Mean anomaly:     017.5827 deg
Mean motion:   14.28221526 rev/day
Decay rate:        6.0e-07 rev/day^2
Epoch rev:           51464
Checksum:              281

Satellite: AO-40
Catalog number: 26609
Epoch time:      08248.41862120
Element set:     113
Inclination:      007.7519 deg
RA of node:       062.7041 deg
Eccentricity:    0.7932680
Arg of perigee:   119.3622 deg
Mean anomaly:     339.6226 deg
Mean motion:   01.25585628 rev/day
Decay rate:      -3.72e-06 rev/day^2
Epoch rev:            3603
Checksum:              294

Satellite: VO-52
Catalog number: 28650
Epoch time:      08247.21364239
Element set:    0022
Inclination:      097.7820 deg
RA of node:       311.6567 deg
Eccentricity:    0.0026116
Arg of perigee:   245.3235 deg
Mean anomaly:     114.5375 deg
Mean motion:   14.81494941 rev/day
Decay rate:       2.03e-06 rev/day^2
Epoch rev:           18015
Checksum:              286

Satellite: PO-63
Catalog number: 29712
Epoch time:      08248.78778429
Element set:     767
Inclination:      097.8689 deg
RA of node:       305.4559 deg
Eccentricity:    0.0015208
Arg of perigee:   120.4303 deg
Mean anomaly:     239.8410 deg
Mean motion:   14.80253509 rev/day
Decay rate:       2.89e-06 rev/day^2
Epoch rev:            8924
Checksum:              347

/EX
SB KEPS @ AMSAT  $ORB08248.D
Orbital Elements  08248.MICROS

HR AMSAT ORBITAL ELEMENTS FOR THE MICROSATS
FROM WA5QGD FORT WORTH,TX September 4, 2008
Send Subscribe/unsubscribe to KEPS at 
http://www.amsat.org/mailman/listinfo/keps
BID: ORB08248.D
TO ALL RADIO AMATEURS BT

Satellite: AO-16
Catalog number: 20439
Epoch time:      08248.52727897
Element set:     409
Inclination:      098.2388 deg
RA of node:       224.5665 deg
Eccentricity:    0.0010269
Arg of perigee:   305.1182 deg
Mean anomaly:     054.9044 deg
Mean motion:   14.31801782 rev/day
Decay rate:       -8.0e-08 rev/day^2
Epoch rev:           97227
Checksum:              322

Satellite: LO-19
Catalog number: 20442
Epoch time:      08247.51337584
Element set:     332
Inclination:      098.2074 deg
RA of node:       231.8989 deg
Eccentricity:    0.0011202
Arg of perigee:   304.8568 deg
Mean anomaly:     055.1548 deg
Mean motion:   14.32039308 rev/day
Decay rate:       -9.2e-07 rev/day^2
Epoch rev:           97228
Checksum:              309

Satellite: AO-27
Catalog number: 22825
Epoch time:      08248.51892816
Element set:      55
Inclination:      098.3940 deg
RA of node:       205.5967 deg
Eccentricity:    0.0008877
Arg of perigee:   032.9259 deg
Mean anomaly:     327.2494 deg
Mean motion:   14.29245380 rev/day
Decay rate:       -7.4e-07 rev/day^2
Epoch rev:           77910
Checksum:              343

Satellite: IO-26
Catalog number: 22826
Epoch time:      08248.69915209
Element set:     764
Inclination:      098.3846 deg
RA of node:       206.6437 deg
Eccentricity:    0.0009550
Arg of perigee:   027.7020 deg
Mean anomaly:     332.4669 deg
Mean motion:   14.29495420 rev/day
Decay rate:       -9.0e-08 rev/day^2
Epoch rev:           77922
Checksum:              333

